Retour au catalogue

STARLINK-36705

ActifCommunicationsSSO
NORAD 67712·PAYLOAD·🇺🇸 United States

Lancé Feb 7, 2026 depuis Vandenberg Space Force Base

Loading…

Prochains Passages (prochaines 24 heures)

TLE

FraisSource: CelesTrak SupGP

Époque: Sep 15, 2026, 03:07 UTC

1 67712C 26025V   26258.13034722 -.00005904  00000+0 -18326-3 0  2583
2 67712  97.2852   8.0790 0001022  98.1655 162.4509 15.33444535    16

Suivez STARLINK-36705 en temps réel avec AllMySat

Download on the App Store